星链-5230 (STARLINK-5230 )

导读 | 豆包AI

STARLINK-5230是美国太空探索技术公司SpaceX星链星座的成员卫星,于2023年1月31日由猎鹰9号火箭发射升空。它属于星链第二代组网卫星,主要为全球提供高速低延迟互联网宽带服务,可覆盖住宅、移动出行、应急通信等多场景,目前已在轨稳定运行超3年,和数千颗星链卫星一同搭建起全球卫星互联网覆盖网络。

基本信息
目录编号:
55394
目录名称:
STARLINK-5230
国际标识:
2023-014D
轨道中心:
EARTH
卫星名称:
星链-5230
卫星全名:
星链-5230 (STARLINK-5230 )
卫星状态:
已陨落 最后检测时间 2024-08-14
发射日期:
2023-01-31 UTC
国别 :
美国 (US)
星等 :
--
轨道信息
数据来源 国际轨道数据
星历时间: 2024-08-14T16:09:20+0800
轨道信息已过期649天
半长轴: 6517.104km
偏心率: 0.0008084
轨道倾角: 69.986°
近地点辐角 277.894°
升交点赤经 56.843°
平近点角 182.176°
近地点: 133.7km
远地点: 144.238km
周期: 87.265分钟
每日圈数: 16.501402
详细信息
固有亮度:
5
最大亮度:
2.5
卫星平台:
Starlink v1.5
覆盖范围:
全球
运营商:
太空探索技术公司
运营商所在国:
美国
制造商(研发单位):
太空探索技术公司
制造商所在国:
美国
使用方式:
暂无
卫星简介
星链(Starlink)计划是由太空探索技术公司(SpaceX)提出的一个巨型低轨卫星互联网星座项目,计划在2019年至2024年间在太空搭建由约1.2万颗卫星组成的“星链”网络,其中1584颗将部署在地球上空550千米处的近地轨道,并从2020年开始工作。该卫星仍在工作。